Location: Newark
(47.5989°N, 4.6950°E)
Time: 10:46:58
(UTC+00:00)

ISS - Pass Details

Date: 22 November 2019
Orbit: 411 x 421 km, 51.6° (Epoch: 09 December)

Event Time Altitude Azimuth Distance (km) Brightness Sun altitude
Rises 18:59:20 0° 241° (WSW) 2,353 0.9 -30.1°
Reaches altitude 10° 19:01:25 10° 241° (WSW) 1,494 -0.3 -30.5°
Enters shadow 19:01:32 11° 241° (WSW) 1,452 -0.4 -30.5°
